Lihue, HI

8:20 AM HST on April 28, 2017 (GMT -1000)
Lihue

Weather History for PHLI - March, 2013

Change the Weather History Date:

Monday, March 11, 2013

  Actual Average Record
Temperature  
Mean Temperature 67 °F 72 °F  
Max Temperature 74 °F 78 °F 86 °F (1984)
Min Temperature 60 °F 67 °F 58 °F (1969)
Degree Days  
Heating Degree Days 0 0  
Month to date heating degree days 0 0  
Since 1 July heating degree days 0 0  
Cooling Degree Days 2 7  
Month to date cooling degree days 67 77  
Year to date cooling degree days 454 472  
Growing Degree Days 16 (Base 50)    
Moisture  
Dew Point 56 °F    
Average Humidity 69    
Maximum Humidity 84    
Minimum Humidity 53    
Precipitation  
Precipitation 0.00 in 0.15 in 5.64 in (2006)
Month to date precipitation 0.16 1.61  
Year to date precipitation 7.04 8.52  
Snow  
Snow 0.00 in - - ()
Month to date snowfall 0.0  
Since 1 July snowfall 0.0  
Snow Depth 0.00 in    
Sea Level Pressure  
Sea Level Pressure 30.04 in    
Wind  
Wind Speed 8 mph (NW)    
Max Wind Speed 12 mph    
Max Gust Speed 14 mph    
Visibility 10 miles    
Events      
T = Trace of Precipitation, MM = Missing Value Source: NWS Daily Summary

Daily Weather History Graph

Daily Weather History Graph

Search for Another Location

Airport or City:

Trip Planner

Search our weather history database for the weather conditions in past years. The results will help you decide how hot, cold, wet, or windy it might be!

Date:

Astronomy

Mar. 11, 2013 Rise Set
Actual Time 6:49 AM HST 6:45 PM HST
Civil Twilight 6:26 AM HST 7:07 PM HST
Nautical Twilight 6:01 AM HST 7:33 PM HST
Astronomical Twilight 5:35 AM HST 7:59 PM HST
Moon 6:34 AM HST (3/11) 7:00 PM HST (3/11)
Length of Visible Light 12h 40m
Length of Day
11h 56m
New Moon, 0% of the Moon is Illuminated
Mar 11
New Moon
Mar 19
First Quarter
Mar 26
Full
Apr 2
Last Quarter
Apr 9
New

Hourly Weather History & Observations

Time (HST) Temp. Dew Point Humidity Pressure Visibility Wind Dir Wind Speed Gust Speed Precip Events Conditions
12:53 AM 61.0 °F 55.0 °F 81% 30.03 in 10.0 mi WNW 6.9 mph - N/A   Clear
1:53 AM 62.1 °F 55.0 °F 78% 30.01 in 10.0 mi West 8.1 mph - N/A   Clear
2:53 AM 60.1 °F 55.0 °F 83% 29.98 in 10.0 mi West 8.1 mph - N/A   Clear
3:53 AM 61.0 °F 55.0 °F 81% 29.98 in 10.0 mi West 9.2 mph - N/A   Clear
4:53 AM 60.1 °F 55.0 °F 83% 29.98 in 10.0 mi West 6.9 mph - N/A   Clear
5:53 AM 61.0 °F 55.0 °F 81% 29.99 in 10.0 mi West 9.2 mph - N/A   Clear
6:53 AM 62.1 °F 55.0 °F 78% 30.01 in 10.0 mi West 6.9 mph - N/A   Clear
7:53 AM 63.0 °F 55.9 °F 78% 30.05 in 10.0 mi West 8.1 mph - N/A   Clear
8:53 AM 66.9 °F 57.0 °F 70% 30.08 in 10.0 mi WNW 8.1 mph - N/A   Clear
9:53 AM 71.1 °F 55.9 °F 59% 30.08 in 10.0 mi North 8.1 mph - N/A   Clear
10:53 AM 71.1 °F 55.9 °F 59% 30.08 in 10.0 mi NE 6.9 mph - N/A   Clear
11:53 AM 71.1 °F 57.0 °F 61% 30.08 in 10.0 mi ENE 5.8 mph - N/A   Mostly Cloudy
12:53 PM 72.0 °F 55.9 °F 57% 30.04 in 10.0 mi ENE 6.9 mph - N/A   Clear
1:53 PM 73.0 °F 55.9 °F 55% 30.02 in 10.0 mi North - - N/A   Unknown
1:55 PM 73.4 °F 55.4 °F 53% 30.02 in 10.0 mi NE 8.1 mph - N/A   Scattered Clouds
2:53 PM 72.0 °F 55.9 °F 57% 30.02 in 10.0 mi NNE 8.1 mph - N/A   Clear
3:53 PM 72.0 °F 55.9 °F 57% 30.01 in 10.0 mi NE 9.2 mph - N/A   Clear
4:53 PM 70.0 °F 55.9 °F 61% 30.02 in 10.0 mi NNE 6.9 mph - N/A   Overcast
5:53 PM 69.1 °F 55.9 °F 63% 30.01 in 10.0 mi North 9.2 mph - N/A   Scattered Clouds
6:53 PM 68.0 °F 55.0 °F 63% 30.03 in 10.0 mi North 4.6 mph - N/A   Clear
7:53 PM 66.9 °F 57.0 °F 70% 30.06 in 10.0 mi WNW 5.8 mph - N/A   Overcast
8:53 PM 66.9 °F 57.0 °F 70% 30.07 in 10.0 mi Calm Calm - N/A   Mostly Cloudy
9:53 PM 66.0 °F 57.9 °F 75% 30.08 in 10.0 mi Calm Calm - N/A   Overcast
10:53 PM 64.9 °F 57.9 °F 78% 30.08 in 10.0 mi West 3.5 mph - N/A   Partly Cloudy
11:53 PM 64.0 °F 57.9 °F 80% 30.07 in 10.0 mi West 6.9 mph - N/A   Mostly Cloudy